Regional Weather Roundup
Issued by NWS

Home | Current Version | Previous Version | Graphics & Text | Print | Product List | Glossary On
Versions: 1 2 3 4 5 6 7 8 9 10 11 12 13 14 15 16 17 18 19 20 21 22 23 24 25 26 27 28 29 30 31 32 33 34 35 36 37 38 39 40 41 42 43 44 45 46 47 48 49 50
000
ASUS43 KLMK 171602
RWRKY
KENTUCKY REGIONAL WEATHER ROUNDUP
NATIONAL WEATHER SERVICE LOUISVILLE KY
1100 AM EST FRI NOV 17 2017

NOTE "FAIR" INDICATES FEW OR NO CLOUDS BELOW 12,000 FEET
WITH NO SIGNIFICANT WEATHER AND/OR OBSTRUCTIONS TO VISIBILITY.

KYZ001>023-026-027-061>063-070>075-171700-
WESTERN AND SOUTH CENTRAL KENTUCKY

CITY           SKY/WX    TMP DP  RH WIND       PRES   REMARKS
PADUCAH        CLOUDY    49  39  68 S7        30.11F
HENDERSON      CLOUDY    38  37  97 SE8       30.16F FOG     WCI  32
OWENSBORO      CLOUDY    39  36  87 SE10      30.17S FOG     WCI  32
HOPKINSVILLE   MOSUNNY   42  39  90 SE5       30.14S
BOWLING GREEN  CLOUDY    41  40  96 E8        30.19F FOG
GLASGOW        NOT AVBL
$$

KYZ024-025-028>034-038-045-046-053-171700-
NORTH CENTRAL KENTUCKY

CITY           SKY/WX    TMP DP  RH WIND       PRES   REMARKS
LOUISVILLE/SDF PTSUNNY   40  32  73 E10       30.19F WCI  33
LOUISVILLE/LOU MOSUNNY   40  34  79 SE7       30.20F
FORT KNOX      CLOUDY    38  32  77 E9        30.17F WCI  32
$$

KYZ035>037-039>044-047>052-055>060-089>105-171700-
NORTHEAST KENTUCKY

CITY           SKY/WX    TMP DP  RH WIND       PRES   REMARKS
LEXINGTON      SUNNY     41  31  67 VRB5      30.21F
COVINGTON      MOSUNNY   39  32  76 S9        30.21F WCI  33
FRANKFORT      SUNNY     41  31  67 CALM      30.21F
$$

KYZ054-064>069-076>088-106>120-171700-
SOUTHEAST KENTUCKY

CITY           SKY/WX    TMP DP  RH WIND       PRES   REMARKS
JACKSON        SUNNY     41  31  67 CALM      30.20F
LONDON         SUNNY     43  33  68 S5        30.20F
SOMERSET       MOSUNNY   41  34  75 E3        30.23F
MIDDLESBORO    SUNNY     49  36  61 CALM      30.21F
MONTICELLO     CLOUDY    41  37  86 NE6       30.22F
$$





USA.gov is the U.S. government's official web portal to all federal, state and local government web resources and services.